Theta_e
328 318 317 316 300 295 291 297 306 304 305 308 310 315 321 326 329 323 345 349 362 361 364 366 367 366 365 364 363 362 361 362 361 361 361 363 362 363 363 363 364 364 363 361 359 356 356 355 354
324 319 313 307 294 288 291 300 300 304 306 309 311 315 323 320 335 336 340 352 361 361 360 364 367 365 365 364 362 362 362 362 361 361 361 362 363 363 363 363 364 364 363 359 358 357 356 356 355
324 319 304 300 294 291 293 299 300 304 308 307 307 312 322 323 331 336 343 353 360 358 360 365 366 365 365 364 362 361 362 362 361 361 362 362 363 363 362 363 364 365 362 360 358 358 359 357 356
313 307 303 294 293 299 300 303 303 306 307 307 307 309 324 329 331 339 348 352 359 357 361 365 366 365 364 364 362 362 362 362 362 362 362 362 363 363 362 363 363 363 363 360 359 359 358 357 355
308 302 294 292 294 299 304 305 304 303 304 305 307 306 319 326 332 344 347 356 359 360 360 362 365 365 365 364 363 362 362 362 362 362 362 362 362 363 363 363 363 362 362 360 357 358 357 355 354
298 300 290 289 294 301 303 304 304 304 305 306 305 306 316 327 329 335 349 356 361 359 359 361 365 365 364 363 362 361 362 361 361 361 361 362 362 363 363 363 362 361 360 359 358 357 355 353 352
295 292 290 293 296 298 302 305 304 303 303 304 305 302 308 316 322 327 348 358 362 361 359 359 362 364 364 363 361 361 361 361 360 360 360 361 362 362 362 362 361 360 359 357 356 355 353 352 351
297 294 291 292 294 294 301 302 304 303 304 309 309 302 300 311 315 315 322 353 358 360 360 358 358 361 359 359 362 362 361 361 360 360 360 360 361 362 361 358 360 360 359 356 355 353 351 350 349
300 289 286 290 294 296 300 298 303 306 304 307 307 306 310 314 316 310 308 319 352 358 358 358 356 355 356 355 357 360 362 361 360 360 360 357 356 357 358 358 360 359 358 355 354 352 350 349 349
297 290 292 297 297 296 300 299 301 302 302 302 305 309 311 312 311 309 310 309 346 350 353 356 355 353 353 357 357 358 357 357 356 356 356 354 350 351 356 356 359 358 357 355 353 352 350 349 337
297 293 299 301 301 301 301 300 302 301 298 302 302 305 308 309 308 309 307 310 309 351 353 353 352 351 349 353 354 356 355 354 354 353 354 349 347 350 351 352 354 350 353 346 348 345 343 337 334
294 301 302 302 303 300 299 302 301 301 302 306 307 308 307 307 306 307 310 311 308 350 353 353 354 350 349 353 353 354 354 352 351 351 352 347 342 345 346 350 348 345 344 339 338 337 336 335 333
298 300 303 303 302 300 303 301 302 301 306 308 308 309 307 307 306 307 308 312 313 329 350 352 352 352 350 352 351 352 352 352 352 352 351 347 344 343 347 348 347 345 342 339 337 335 336 334 333
301 301 301 302 302 302 301 302 302 304 308 307 307 306 307 307 306 306 306 308 312 311 343 350 351 351 352 350 348 347 349 351 352 352 352 348 347 344 344 348 346 344 343 339 339 338 337 334 333
302 298 301 302 303 300 301 297 299 304 306 305 306 307 307 307 309 308 307 307 311 315 315 329 348 352 351 351 349 347 345 347 348 349 351 351 347 344 344 345 346 345 343 341 338 339 336 331 331
299 297 292 298 299 300 298 290 299 302 302 302 304 305 305 306 308 308 309 308 311 314 319 318 348 351 350 348 351 347 348 345 344 345 350 351 347 348 344 342 343 344 342 341 338 334 329 329 329
294 286 289 293 298 299 297 293 300 302 302 301 301 302 304 304 306 309 311 311 312 313 321 319 322 347 348 348 350 349 352 348 345 345 349 348 346 350 345 341 342 341 339 335 333 332 330 328 331
288 288 289 291 296 298 294 294 299 301 301 301 301 303 304 304 305 307 312 313 312 314 317 321 323 328 348 348 347 348 346 350 348 347 348 346 345 348 344 342 342 342 337 335 333 330 333 334 333
294 292 291 295 298 295 294 295 297 300 300 300 301 302 303 304 307 308 311 313 313 313 318 326 327 325 334 346 343 341 343 345 347 349 348 345 346 345 345 340 342 340 336 336 333 333 331 336 338
295 292 291 295 298 296 294 294 297 299 299 300 302 302 302 304 305 308 308 311 311 313 315 324 327 328 331 343 347 343 345 344 345 349 349 347 345 343 345 341 343 338 336 337 336 337 334 337 340
294 292 292 292 296 297 294 292 294 298 300 304 305 305 306 305 305 306 308 309 312 312 317 324 330 331 334 337 347 344 341 340 343 346 345 346 345 342 346 343 342 338 337 337 341 339 335 333 339
291 297 296 294 291 286 292 283 291 296 299 302 304 304 306 305 306 306 307 308 310 313 319 327 331 331 334 337 343 344 344 340 341 342 344 346 345 344 346 344 342 338 339 339 343 343 340 337 333
294 299 295 294 291 287 289 284 288 295 295 298 302 305 306 308 306 307 306 309 311 314 316 327 327 329 329 331 334 344 343 343 342 343 344 344 346 346 348 344 344 343 339 341 342 342 341 339 334
299 295 293 291 288 281 287 286 286 290 297 299 304 306 307 307 308 309 309 314 312 312 313 324 326 326 328 331 330 340 343 342 340 339 341 342 344 344 347 346 342 346 340 342 343 342 340 337 336
294 288 280 279 276 279 289 286 287 298 301 303 302 303 304 307 307 310 311 315 315 317 311 316 323 325 326 330 333 331 343 343 339 339 338 339 341 341 345 346 341 344 342 343 343 343 339 336 332
291 288 284 275 276 280 289 283 291 301 302 304 305 304 305 306 306 308 311 310 314 317 318 318 322 323 331 329 337 337 343 344 343 339 335 338 340 343 343 344 342 346 344 344 344 341 335 329 327
290 284 292 280 286 283 285 291 297 299 300 302 303 305 304 306 305 307 309 313 314 317 317 319 321 326 334 333 335 338 340 341 341 338 338 338 342 342 342 343 342 346 344 343 340 333 327 325 321
294 296 286 286 279 276 282 284 287 294 298 301 302 302 302 304 305 306 308 311 312 313 316 319 319 319 322 331 337 337 337 337 339 337 337 337 337 335 336 339 341 343 343 336 332 328 323 319 318
290 289 289 288 285 275 277 280 293 292 296 296 298 299 300 301 301 305 307 310 310 309 312 317 317 318 319 322 330 332 334 334 336 336 337 338 332 334 337 335 338 339 334 331 328 324 319 316 315
295 293 292 283 280 282 282 283 295 295 298 298 297 298 299 301 302 303 304 307 309 309 311 311 314 316 317 318 325 332 331 331 332 333 333 333 332 334 334 330 332 333 330 327 323 321 318 314 310
Wind_Speed
9 9 2 3 5 4 5 11 9 10 4 4 4 15 17 12 7 7 5 3 16 15 11 14 17 17 17 16 14 14 17 15 14 15 16 17 17 17 16 16 16 16 14 14 13 12 10 9 8
5 7 1 3 4 1 8 9 4 6 5 8 9 15 17 12 10 5 3 6 15 15 10 10 16 15 18 16 15 13 15 17 16 14 13 15 15 16 15 14 14 14 14 14 13 12 10 8 6
5 4 3 4 4 6 7 2 1 3 8 6 5 7 8 6 7 6 1 9 14 15 12 12 16 15 16 18 16 15 13 16 16 16 14 12 13 13 13 13 13 13 14 13 12 11 9 7 5
3 3 5 2 9 12 10 11 1 4 5 6 4 9 7 5 5 7 5 4 14 14 13 16 17 16 16 16 17 16 15 15 18 17 15 14 13 11 10 10 11 11 11 11 10 8 7 6 4
3 2 2 3 9 11 14 11 3 4 4 7 6 5 10 6 11 10 8 9 18 10 8 12 20 18 16 16 17 17 16 15 17 17 16 15 13 11 10 10 9 9 10 10 10 8 6 5 4
4 3 3 4 9 9 8 4 5 6 8 12 11 6 5 8 10 8 8 10 14 12 10 9 13 19 17 16 16 18 17 16 17 18 16 15 14 12 10 10 10 9 9 8 8 7 6 5 4
5 2 6 8 11 10 11 14 9 7 9 8 4 4 6 8 6 6 7 10 14 13 11 6 6 12 18 16 16 16 16 17 17 18 16 15 15 13 12 11 10 10 8 7 5 5 6 5 4
2 4 6 6 8 9 11 12 10 13 6 6 6 5 3 3 7 6 6 9 9 13 13 11 7 7 10 11 15 16 17 16 15 16 17 16 14 13 13 11 11 11 10 9 7 7 5 5 4
1 4 4 5 7 8 9 11 11 11 10 8 7 2 7 4 2 4 2 4 7 7 9 12 13 9 8 9 11 13 17 16 16 14 15 12 7 8 10 9 10 10 9 8 8 7 5 5 7
4 2 6 4 4 6 9 6 8 7 10 8 8 10 9 8 8 6 6 7 8 8 8 10 13 13 11 9 10 9 10 8 9 9 10 7 6 6 9 8 13 11 10 9 8 7 6 6 4
1 2 9 11 3 5 8 7 3 5 4 8 8 8 9 8 9 7 2 6 9 13 7 8 10 13 13 10 8 6 5 6 7 9 9 7 6 7 5 4 5 4 8 4 5 4 3 5 4
3 8 8 9 5 5 7 10 8 4 8 7 8 7 6 10 9 8 7 8 4 11 10 7 7 13 13 9 9 9 7 7 6 9 11 6 4 7 5 5 5 5 4 5 5 4 5 6 6
8 8 10 10 11 8 8 12 14 9 10 8 9 9 9 9 8 9 9 7 8 7 8 8 4 7 12 11 9 10 10 9 9 9 11 9 6 8 7 7 7 6 6 6 6 5 5 6 5
8 10 12 11 14 14 14 18 7 11 10 9 9 12 12 10 10 7 9 8 7 7 9 10 9 7 7 9 11 9 9 10 10 9 10 12 9 8 8 9 9 8 8 7 5 7 6 5 5
10 15 16 20 16 10 8 7 6 8 9 10 13 12 10 11 10 10 9 9 9 8 9 9 10 10 7 8 8 7 8 10 10 9 12 13 10 8 11 8 9 9 8 9 6 6 4 4 4
13 9 9 9 9 9 8 9 11 11 10 14 12 11 9 8 11 10 9 8 8 6 9 10 9 10 9 6 8 8 6 7 9 9 10 15 11 10 8 10 8 9 8 7 7 4 4 4 4
7 6 10 11 11 11 9 19 16 11 9 9 9 9 9 10 10 10 11 11 10 9 9 9 8 9 9 8 8 7 6 7 8 9 10 14 14 11 9 7 6 6 5 6 5 3 4 3 1
6 8 8 14 13 14 11 11 15 9 13 16 17 17 16 14 12 10 12 11 10 10 9 10 9 9 9 6 6 9 6 4 6 10 12 15 12 9 8 5 6 6 5 5 4 4 3 4 4
6 9 13 17 8 13 14 17 24 16 18 21 21 21 20 19 18 14 10 12 11 10 10 10 9 9 6 4 4 3 11 7 6 6 14 15 12 11 10 6 6 6 7 6 6 4 5 3 2
9 13 11 12 14 14 14 21 25 21 17 9 12 12 11 6 11 17 13 10 11 11 11 11 13 10 7 5 5 4 4 9 7 4 6 15 14 14 12 10 7 9 7 7 6 5 3 3 4
12 10 6 10 16 16 12 19 19 16 6 8 14 11 12 10 9 11 14 12 10 11 10 11 15 13 10 8 6 3 2 3 8 7 4 12 15 14 13 10 8 8 9 7 5 6 7 4 2
14 6 9 12 13 18 3 16 17 8 12 16 17 21 23 16 9 8 9 10 11 13 11 12 14 15 10 10 9 10 9 9 9 10 4 8 15 12 11 10 6 6 5 6 5 5 4 5 4
7 9 9 12 15 10 14 8 7 7 8 14 15 21 26 21 9 8 9 9 9 12 11 13 15 13 10 9 8 10 9 8 6 9 14 11 11 9 15 14 8 8 4 5 7 6 6 3 4
21 15 18 7 6 8 3 2 5 5 6 6 17 17 16 18 18 13 8 18 13 8 8 12 15 15 12 12 10 9 12 10 7 8 9 10 6 5 3 7 10 7 6 7 6 6 8 5 5
14 10 8 6 5 8 5 10 7 8 11 8 9 14 11 15 15 17 17 14 18 19 5 10 14 13 13 11 9 10 9 10 9 9 7 9 5 8 12 12 10 5 8 8 8 7 7 6 7
10 5 4 6 3 16 14 7 3 4 13 15 8 12 12 12 7 12 16 16 16 19 12 12 11 14 14 13 11 12 11 6 6 5 5 7 8 11 13 14 12 12 9 9 9 8 7 9 8
8 6 2 2 5 5 6 1 2 11 14 12 10 9 10 7 10 10 13 11 7 9 10 9 6 4 16 16 8 8 7 7 7 7 5 5 6 7 8 11 13 13 10 10 12 9 10 11 10
14 7 2 2 4 6 5 6 3 4 4 5 5 8 9 10 7 9 10 10 13 10 10 14 7 8 3 5 11 9 8 7 7 6 6 5 4 4 5 2 2 6 14 14 12 9 11 13 8
13 3 3 4 3 3 6 5 8 7 4 6 4 8 13 13 11 8 8 8 11 9 6 5 7 7 7 5 3 4 7 6 6 6 4 4 5 7 7 9 7 7 11 15 14 9 13 14 12
13 1 15 3 9 6 7 16 11 2 12 8 7 9 12 13 17 14 10 14 10 10 8 7 7 5 4 2 7 13 6 4 4 4 4 3 7 7 10 10 9 13 18 13 12 12 11 14 13
Wind_Direction
312 296 220 316 43 81 263 262 251 356 41 354 59 83 83 46 61 131 252 33 127 127 132 136 136 136 130 132 140 138 129 128 125 124 125 122 119 118 120 123 126 127 125 123 122 121 115 111 110
311 303 143 265 105 322 268 250 68 61 25 4 42 91 71 78 78 77 11 57 121 127 131 137 136 137 137 138 144 144 137 136 131 126 126 124 124 126 128 127 127 128 128 129 130 129 127 125 124
267 227 48 158 193 211 249 229 265 95 84 51 30 71 91 107 64 113 145 94 127 136 135 139 135 141 144 146 147 145 145 139 135 134 135 131 124 126 131 132 135 137 136 135 137 136 133 131 138
305 6 328 74 269 267 250 285 134 24 43 88 88 64 65 70 95 124 64 24 142 146 137 140 139 145 149 152 150 149 151 149 140 140 141 139 132 130 133 135 138 139 138 137 136 135 136 140 156
185 311 249 262 264 266 277 266 156 95 19 60 71 72 114 94 102 105 77 41 128 119 126 148 146 146 151 157 154 152 154 154 144 144 146 145 141 141 139 137 137 139 140 142 149 148 149 166 182
345 122 5 268 267 277 305 354 83 53 28 22 36 69 87 90 73 100 104 95 113 122 128 145 153 146 151 158 162 159 158 159 152 150 152 152 147 148 145 142 144 144 145 151 157 152 162 179 198
167 81 244 274 285 305 12 341 32 37 31 35 60 70 146 91 108 89 122 120 128 128 125 130 151 158 150 157 164 164 160 161 158 154 154 156 153 153 150 150 150 148 145 147 154 173 177 194 218
149 104 304 276 284 291 9 0 13 19 358 10 59 29 326 110 81 57 97 135 142 142 146 152 151 160 154 156 168 167 162 161 161 158 156 156 160 161 160 156 155 153 153 159 177 186 199 208 231
270 41 272 310 21 306 11 8 353 339 9 357 353 3 294 299 136 131 148 107 133 152 158 161 158 164 163 161 173 171 167 162 161 162 158 154 159 162 164 161 159 159 159 168 188 193 205 231 245
122 113 260 351 357 352 328 25 324 360 337 332 334 326 325 329 334 245 188 190 165 166 184 177 166 164 167 170 159 163 175 165 160 161 161 164 163 166 171 179 166 167 166 178 198 203 211 234 252
3 283 298 315 1 1 307 317 273 328 315 301 296 301 319 327 327 334 336 207 229 183 173 188 169 169 171 164 157 161 168 170 163 164 168 176 172 178 175 158 165 159 173 185 199 210 219 230 232
23 311 294 271 314 321 296 302 299 265 253 264 298 297 306 309 307 295 297 298 265 163 184 186 169 174 179 148 165 171 169 176 184 174 173 180 184 178 157 160 162 171 177 194 197 204 218 232 229
346 310 313 317 311 287 283 264 258 259 262 263 268 275 268 259 269 291 275 261 280 170 179 199 197 167 180 157 171 175 176 179 184 181 180 183 186 181 161 169 172 185 181 200 199 208 210 232 228
289 300 301 298 286 281 266 264 246 248 246 250 249 251 248 230 233 248 274 262 230 250 186 182 177 210 188 165 176 184 179 181 179 186 184 191 193 180 173 175 183 192 191 200 195 204 205 215 224
294 296 289 279 274 270 274 316 263 270 282 258 248 249 249 229 224 227 230 238 231 216 207 198 182 176 201 165 182 185 184 182 186 185 182 193 199 186 188 174 184 195 197 192 199 220 197 177 221
275 274 280 278 349 323 30 280 298 318 323 311 302 292 279 265 235 221 222 230 235 219 216 187 185 169 181 196 191 215 198 178 188 187 178 190 194 190 190 191 183 194 192 190 197 180 163 186 209
274 267 318 319 347 324 330 301 296 287 289 294 303 297 289 284 263 232 218 212 223 225 203 212 184 183 178 180 195 228 232 201 187 190 181 191 196 191 185 182 197 179 163 170 155 144 150 188 228
315 329 313 306 306 292 303 301 314 330 325 307 297 292 283 273 262 259 236 213 205 207 197 199 193 180 177 169 178 198 238 277 222 196 184 184 192 178 180 182 182 170 163 163 143 153 189 179 193
321 304 287 289 310 354 332 317 306 316 301 288 282 274 263 254 251 250 231 227 203 197 184 185 181 191 158 154 165 189 219 239 257 220 189 179 180 179 187 192 181 166 164 169 169 162 182 238 178
296 275 293 304 337 326 323 300 292 292 280 305 305 304 283 276 259 245 234 219 212 202 196 181 188 185 179 161 177 176 182 224 229 235 220 180 185 183 183 190 184 181 159 163 172 157 145 183 175
292 300 302 311 319 295 289 276 291 288 320 298 292 275 299 277 285 258 235 220 210 203 194 180 185 182 177 178 163 179 188 256 219 235 209 208 191 190 180 180 176 181 168 172 171 166 154 179 242
285 303 324 315 312 291 29 305 311 342 348 338 324 339 330 280 282 292 243 213 206 207 191 175 177 183 179 175 176 180 205 216 220 220 194 209 199 192 173 176 169 190 167 160 168 166 148 123 169
303 323 321 317 302 322 309 267 323 351 336 341 341 339 342 306 284 307 342 260 218 197 180 172 173 181 176 181 172 181 195 209 222 208 215 214 192 185 184 176 160 180 180 164 164 146 130 137 125
344 339 324 339 321 285 316 86 272 306 275 327 342 334 314 352 345 8 4 19 349 205 174 166 173 183 181 184 192 183 189 207 216 202 208 206 200 170 150 224 190 160 164 170 168 151 145 131 140
348 344 327 329 357 253 313 326 286 346 315 284 310 324 340 7 9 1 0 10 16 10 285 161 172 183 188 183 180 190 187 203 210 216 199 204 160 202 176 185 210 162 174 173 158 147 131 131 121
329 327 142 270 291 295 291 246 150 323 339 308 28 334 341 4 5 34 12 337 29 348 2 4 187 186 182 186 189 193 183 187 214 207 203 188 190 184 198 178 193 173 169 154 136 121 118 113 111
297 323 241 131 239 276 249 291 38 25 356 332 348 327 331 341 356 23 23 343 329 312 323 7 50 251 178 188 174 178 179 170 194 213 190 190 164 181 180 197 182 179 154 139 123 122 111 102 103
334 278 5 44 304 284 281 303 215 338 242 324 301 324 331 352 7 356 16 330 326 326 353 344 336 92 51 240 178 184 180 181 187 193 198 181 183 152 99 339 262 186 130 113 107 115 107 102 98
310 13 347 199 211 236 303 261 210 230 1 321 348 5 358 358 349 345 333 318 311 308 319 333 326 46 95 234 239 203 193 182 170 176 180 171 141 140 134 114 128 115 158 102 107 124 111 106 107
256 151 282 186 283 232 259 284 254 99 347 339 22 357 346 338 332 327 322 315 283 289 297 309 334 359 358 9 135 213 161 138 152 172 159 145 141 152 152 142 139 117 123 118 120 118 123 114 107